TimeMDT,TemperatureF,Dew PointF,Humidity,Sea Level PressureIn,VisibilityMPH,Wind Direction,Wind SpeedMPH,Gust SpeedMPH,PrecipitationIn,Events,Conditions,WindDirDegrees,DateUTC
12:53 AM,75.0,48.0,38,29.75,10.0,West,12.7,-,N/A,,Mostly Cloudy,270,2013-07-12 06:53:00
1:53 AM,73.0,48.0,41,29.75,10.0,WNW,8.1,-,N/A,,Clear,290,2013-07-12 07:53:00
2:53 AM,71.1,50.0,47,29.76,10.0,WNW,5.8,-,N/A,,Clear,300,2013-07-12 08:53:00
3:53 AM,70.0,50.0,49,29.77,10.0,WNW,12.7,-,N/A,,Mostly Cloudy,290,2013-07-12 09:53:00
4:53 AM,69.1,52.0,54,29.78,10.0,ENE,4.6,-,N/A,,Overcast,70,2013-07-12 10:53:00
5:53 AM,66.0,54.0,65,29.81,10.0,South,5.8,-,0.01,Rain,Light Rain,170,2013-07-12 11:53:00
6:53 AM,66.0,55.9,70,29.83,10.0,South,3.5,-,0.00,,Scattered Clouds,180,2013-07-12 12:53:00
7:53 AM,71.1,55.0,57,29.83,10.0,Calm,Calm,-,N/A,,Mostly Cloudy,0,2013-07-12 13:53:00
8:53 AM,71.1,55.0,57,29.84,10.0,Variable,3.5,-,N/A,,Overcast,0,2013-07-12 14:53:00
9:53 AM,71.1,51.1,49,29.86,10.0,NW,4.6,-,N/A,,Overcast,320,2013-07-12 15:53:00
10:53 AM,70.0,57.0,63,29.87,10.0,South,5.8,-,0.00,,Overcast,190,2013-07-12 16:53:00
11:53 AM,73.0,53.1,49,29.88,10.0,Calm,Calm,-,N/A,,Partly Cloudy,0,2013-07-12 17:53:00
12:53 PM,75.0,50.0,41,29.88,10.0,South,3.5,-,N/A,,Clear,190,2013-07-12 18:53:00
1:53 PM,80.1,48.9,34,29.86,10.0,SE,9.2,-,N/A,,Clear,140,2013-07-12 19:53:00
2:53 PM,82.0,48.9,31,29.84,10.0,East,10.4,-,N/A,,Clear,100,2013-07-12 20:53:00
3:53 PM,82.9,50.0,32,29.84,10.0,ESE,9.2,16.1,N/A,,Clear,110,2013-07-12 21:53:00
4:53 PM,81.0,51.1,35,29.83,10.0,ESE,8.1,-,N/A,,Clear,120,2013-07-12 22:53:00
5:53 PM,82.0,51.1,34,29.81,10.0,SE,12.7,-,N/A,,Clear,130,2013-07-12 23:53:00
6:53 PM,81.0,48.9,33,29.81,10.0,ESE,13.8,19.6,N/A,,Clear,120,2013-07-13 00:53:00
7:53 PM,77.0,52.0,42,29.81,10.0,SE,9.2,-,N/A,,Clear,130,2013-07-13 01:53:00
8:53 PM,75.0,55.0,50,29.82,10.0,SSE,16.1,21.9,N/A,,Clear,150,2013-07-13 02:53:00
9:53 PM,72.0,55.0,55,29.83,10.0,SE,11.5,-,N/A,,Clear,140,2013-07-13 03:53:00
10:53 PM,70.0,53.1,55,29.84,10.0,SSE,11.5,19.6,N/A,,Clear,150,2013-07-13 04:53:00
11:53 PM,69.1,53.1,57,29.83,10.0,SSE,10.4,-,N/A,,Clear,150,2013-07-13 05:53:00